Regional Weather Roundup
Issued by NWS Upton, NY

Current Version | Previous Version | Graphics & Text | Print | Product List | Glossary Off
Versions: 1 2 3 4 5 6 7 8 9 10 11 12 13 14 15 16 17 18 19 20 21 22 23 24 25 26 27

000
ASUS41 KOKX 280809
RWROKX

REGIONAL WEATHER ROUNDUP
NATIONAL WEATHER SERVICE NEW YORK NY
400 AM EDT SUN MAY 28 2017

NOTE: "FAIR" INDICATES FEW OR NO CLOUDS BELOW 12,000 FEET WITH NO
SIGNIFICANT WEATHER AND/OR OBSTRUCTIONS TO VISIBILITY.

NYZ071-072-176-178-NJZ106-104-280900-
NEW YORK CITY METRO AREA

CITY           SKY/WX    TMP DP  RH WIND       PRES   REMARKS
Central Park   CLEAR     59  57  93 E3        29.91F
Wall St Helipt SUNNY     60  57  89 NE8       29.89F
Bronx Bot Gard   N/A     57  54  88 CALM      29.90S
LaGuardia APRT CLEAR     60  56  86 E6        29.89F
Kennedy INTL   MOCLDY    58  58 100 E3        29.91F
Breezy Point     N/A     55 N/A N/A NE2         N/A
Newark/Liberty PTCLDY    60  57  89 SE3       29.88F
Teterboro      CLEAR     58  56  93 CALM      29.87F
$$

NYZ177-179-078>081-280900-
LONG ISLAND NEW YORK

CITY           SKY/WX    TMP DP  RH WIND       PRES   REMARKS
Jones Beach      N/A     57 N/A N/A SE2         N/A
Matinecock PT  NOT AVBL
Farmingdale    CLEAR     57  56  96 SE5       29.90F
MacArthur/ISP  CLOUDY    58  56  93 S6        29.90F
Shirley        CLOUDY    58  56  93 SE3       29.91F
Mt Sinai Harb    N/A    N/A N/A N/A S6          N/A
Westhampton    CLOUDY    57  53  86 CALM      29.93F
East Hampton   CLOUDY    55  53  94 SE3       29.92F
Montauk          N/A     56  54  93 CALM      29.94S
$$

NYZ052-065-067-280900-
HUDSON VALLEY

CITY           SKY/WX    TMP DP  RH WIND       PRES   REMARKS
White Plains   MOCLDY    58  55  90 E5        29.89F
Larchmont Harb   N/A     57 N/A N/A E7          N/A
Croton O-T Hud   N/A     59 N/A N/A E1          N/A
Newburgh       CLOUDY    61  59  94 CALM      29.92S
Montgomery     CLOUDY    58  56  93 CALM      29.87F
Poughkeepsie   CLOUDY    60  57  89 E3        29.87F
Albany         CLOUDY    61  55  81 SE3       29.88F
$$

NJZ001-105-106-008-010-013-015-019>022-104-280900-
NEW JERSEY

CITY           SKY/WX    TMP DP  RH WIND       PRES   REMARKS
Newark/Liberty PTCLDY    60  57  89 SE3       29.88F
Teterboro      CLEAR     58  56  93 CALM      29.87F
Caldwell       PTCLDY    59  55  87 CALM      29.89F
Somerville     MOCLDY    53  52  96 CALM      29.87F FOG
Linden         NOT AVBL
Perth Amboy      N/A     57 N/A N/A E2          N/A
Sussex         CLOUDY    58  57  97 CALM      29.90F
Andover          N/A     58  57  97 S3        29.89F
Trenton        CLEAR     56  55  97 CALM      29.88S
Millville      CLOUDY    61  61 100 CALM      29.88F FOG
Atlantic City  CLEAR     61  58  90 S3        29.89F
Wrightstown    PTCLDY    58  56  95 CALM      29.87S
Toms River     MOCLDY    57  56  96 CALM      29.88F
Belmar         CLEAR     56  55  97 NE3       29.89F
$$

PAZ047>061-062-071-280900-
EASTERN PENNSYLVANIA

CITY           SKY/WX    TMP DP  RH WIND       PRES   REMARKS
Philadelphia   MOCLDY    62  60  93 CALM      29.89R
Allentown      CLEAR     54  51  90 CALM      29.90R
Scranton       CLOUDY    60  56  86 E5        29.89S
$$

CTZ002-004>006-009-010-012-RIZ004-006-007-MAZ004-011-015-280900-
SOUTHERN NEW ENGLAND
 IN CT

CITY           SKY/WX    TMP DP  RH WIND       PRES   REMARKS
Bradley INTL   CLOUDY    57  54  89 S5        29.91F
Hartford       CLOUDY    58  53  84 S5        29.91F
Danbury        CLOUDY    56  55  97 SE5       29.91F
Wtrbury/Oxford   N/A     55  52  88 CALM      29.93F
Bridgeport     CLOUDY    60  55  83 E3        29.91F
Meriden        CLOUDY    56  54  93 CALM      29.92F
New Haven      CLOUDY    57  54  89 CALM      29.91F
Chester        CLOUDY    55  54  94 CALM      29.92F
Groton         CLOUDY    56  52  86 E3        29.92F
Wilimantic     CLOUDY    58  53  84 S3        29.92F

 IN RI

CITY           SKY/WX    TMP DP  RH WIND       PRES   REMARKS
Providence     CLOUDY    55  55 100 S7        29.94R
Block Island   CLOUDY    55  53  93 S7        29.94S
Westerly       CLOUDY    57  55  93 SE5       29.93F
 IN MA

CITY           SKY/WX    TMP DP  RH WIND       PRES   REMARKS
Boston         MOCLDY    56  52  86 SW9       29.92R
Worcester      CLOUDY    56  52  86 W5        29.91F
Westfield      CLOUDY    57  56  96 S3        29.91
Provincetown   CLEAR     52  48  86 S5        29.94S
Nantucket      CLEAR     46  44  93 SE6       29.93S
$$

ANZ330-335-338-340-345-350-353-355-280900-
COASTAL MARINE OBSERVATIONS


STATION/POSITION TIME  SKY/WX   TEMP    WIND        PRES    VSBY  WAVE
                                AIR SEA DIR/SP/G                  HT/PER
                 (UTC)          (F)     (DEG/KT/KT) (MB)    (MI)  (FT/S)
NY HARB ENTRANCE 0650            58 58  160/  8/ 10 1012.9          2/ 8
20 S FIRE ISLAND 0750            57 57  150/  8/ 10 1012.0          2/ 8
GREAT SOUTH BAY  NOT AVBL
23 SSW MONTAUK P 0650            55 55              1013.9          2/ 8
15 E BARNEGAT LI 0730               59                N/A           2/ 8
HUDSON CANYON    0650            57 57  130/  6/  8 1012.9          2/ 8
KINGS POINT      0736            59 59  140/  2/  3 1012.1
EXECUTION ROCKS  0745            59                   N/A
CENTRAL LI SOUND 0715            55      CALM  /  2   N/A           0
EASTERN LI SOUND NOT AVBL
ROBBINS REEF     0742            60      90/  5/  6 1012.7
$$


>>>>>>>>>>>>>>>>>>>>>>>>>>>> KEY <<<<<<<<<<<<<<<<<<<<<<<<<<<
>                                                          <
>     SKY/WX - Sky Condition/Present Weather               <
>     TMP    - Temperature in Fahrenheit                   <
>     DP     - Dew Point in Fahrenheit                     <
>     RH     - Relative Humidity in Percent                <
>     WIND   - Direction (from) and Speed in MPH           <
>     PRES   - Mean Sea Level Pressure (inches of Hg)      <
>     WCI    - Wind Chill Index                            <
>     VSB    - VISIBILITY IN MILES                         <
>     HX     - HEAT INDEX                                  <
>     TC     - TEMPERATURE IN CELSIUS                      <
>     VRB    - VARIABLE WIND DIRECTION                     <
>                                                          <
>>>>>>>>>>>>>>>>>>>>>>>>>>>> KEY <<<<<<<<<<<<<<<<<<<<<<<<<<<




USA.gov is the U.S. government's official web portal to all federal, state and local government web resources and services.